Wind_Speed
39 39 40 39 38 38 40 41 42 41 42 41 42 42 42 42 43 44 44 44 44 45 45 46 46 46 46 46 46 47 47 47 47 47 47 47 47 46 46 45 46 46 46 45
39 39 40 39 39 40 40 40 41 41 41 41 41 41 42 42 43 44 44 44 44 44 44 45 45 45 45 46 46 46 46 46 46 46 46 45 45 44 44 43 43 44 44 44
39 39 40 39 38 39 40 40 40 41 40 41 41 41 42 43 43 44 44 43 43 43 43 44 44 44 44 45 45 45 45 45 44 44 44 44 44 43 42 42 42 41 41 42
39 39 41 39 39 40 41 40 40 41 41 41 41 42 43 44 45 44 44 43 43 43 43 43 43 44 44 44 44 44 44 43 43 42 41 41 41 41 41 41 41 40 40 40
40 41 41 40 40 41 41 40 40 41 41 41 42 42 42 43 43 43 42 42 42 43 43 43 44 43 43 43 43 42 42 42 42 41 40 39 39 38 38 38 38 38 38 38
40 42 42 41 41 42 42 41 41 41 41 41 41 41 40 41 42 42 41 42 42 43 43 43 43 43 42 42 42 42 41 40 40 39 38 38 37 36 36 36 36 36 36 36
40 42 42 41 42 42 41 42 41 40 40 40 40 40 40 40 40 41 41 42 42 42 42 42 42 42 42 41 41 40 39 38 37 36 36 36 36 36 35 35 35 35 35 35
41 41 41 41 41 41 41 41 40 40 40 39 39 39 39 39 39 40 40 41 41 41 41 41 41 41 40 40 39 38 38 37 36 35 34 34 34 34 34 34 34 34 34 35
41 41 41 41 41 41 41 41 39 39 39 38 38 38 38 39 39 40 40 40 40 39 40 39 39 39 38 38 37 36 36 35 34 33 33 32 32 32 32 33 33 33 34 34
39 39 39 40 40 40 39 39 38 38 38 38 38 38 38 39 39 39 39 39 38 38 38 37 37 37 36 36 35 35 34 34 33 32 32 31 31 31 31 32 32 32 32 32
38 38 38 38 38 38 38 38 38 38 38 38 38 38 39 39 39 39 38 38 38 37 37 36 36 35 35 34 34 33 33 32 32 31 31 31 31 31 31 31 32 31 31 31
37 37 37 37 37 37 37 37 38 38 38 38 38 38 38 38 38 38 37 37 36 35 35 35 34 34 33 33 33 33 32 31 31 30 29 29 29 30 30 30 30 30 30 31
36 36 36 36 36 37 37 38 38 38 38 37 37 37 37 37 37 37 36 35 35 34 34 34 33 33 33 33 33 33 32 31 30 29 28 28 27 27 27 28 29 29 29 29
35 35 35 36 37 37 37 37 37 37 37 36 36 36 36 36 36 35 35 34 34 33 33 33 33 33 32 32 32 31 31 30 29 28 28 27 27 26 26 26 26 27 28 27
34 35 35 36 36 35 35 36 36 36 36 36 36 36 35 35 34 34 33 33 33 33 33 32 32 32 32 31 30 30 29 29 28 28 28 27 27 26 26 25 25 25 27 27
33 34 34 35 35 34 34 35 35 35 36 35 35 35 34 34 33 32 32 32 32 32 32 32 31 31 31 30 29 29 28 28 28 28 27 27 26 26 26 25 24 25 26 26
33 34 34 34 34 34 34 35 35 35 35 34 34 33 33 32 31 31 31 31 31 31 31 30 30 29 29 28 28 28 27 27 27 26 26 25 25 25 25 25 25 25 26 26
32 32 33 33 33 33 34 34 34 34 33 33 32 31 31 30 30 30 30 29 29 29 29 28 28 27 27 27 27 26 26 26 25 25 25 24 24 24 24 24 24 25 25 26
32 32 33 33 33 33 33 33 33 33 33 32 30 29 29 28 28 28 27 27 27 27 27 27 26 26 26 26 26 26 25 25 25 25 24 24 24 23 23 23 24 24 25 25
32 32 33 33 33 32 32 32 32 31 31 30 29 28 27 27 27 27 26 26 26 26 26 26 25 25 25 26 26 25 24 24 24 24 24 23 23 23 22 22 22 22 23 24
31 31 32 32 32 31 31 30 30 29 29 28 27 27 26 26 26 25 25 26 26 26 25 25 25 25 26 26 25 25 24 24 24 24 23 22 22 21 21 20 20 20 21 21
31 31 31 30 30 30 29 29 29 28 28 27 27 26 26 25 25 25 25 25 25 25 25 25 25 26 26 26 25 24 24 24 23 23 22 21 21 20 19 19 18 19 19 19
30 30 29 29 28 28 28 28 27 27 26 26 25 25 24 24 24 24 24 24 24 24 24 24 25 25 25 25 24 24 23 23 23 22 21 21 20 19 18 18 17 18 18 18
29 29 28 28 27 27 27 26 26 25 25 24 24 24 23 23 23 23 23 23 23 23 24 24 24 24 24 24 23 23 23 22 22 21 20 19 19 18 17 17 17 17 17 18
28 28 28 27 27 26 26 25 25 24 24 23 23 23 22 23 23 22 22 22 23 23 23 23 24 24 23 23 23 23 22 21 20 19 19 18 18 17 17 16 16 17 17 17
27 27 27 27 26 25 25 24 24 23 23 23 22 22 22 22 21 21 22 22 23 23 23 23 24 23 23 23 22 21 21 20 19 19 19 18 17 17 16 16 16 16 16 16
27 27 27 26 25 24 24 23 23 23 23 22 22 22 22 22 21 22 22 22 23 23 24 24 24 23 23 23 22 21 20 19 19 18 18 17 17 17 16 16 16 15 16 16
Wind_Direction
286 288 288 289 289 288 288 289 290 291 290 290 289 288 288 289 290 290 290 291 292 293 293 292 292 292 291 290 289 288 286 284 283 282 280 278 276 274 273 271 268 266 263 262
286 287 288 289 289 289 289 290 291 291 290 290 289 289 289 290 291 291 291 292 293 294 294 294 294 293 292 291 290 289 287 285 284 282 280 277 276 274 273 271 269 267 264 263
287 288 288 289 291 292 291 291 291 291 291 290 289 289 289 290 291 292 292 292 293 294 295 295 295 295 294 292 291 290 289 286 285 283 281 278 275 274 272 270 268 266 265 263
288 289 289 293 292 292 293 293 293 292 292 292 291 290 291 291 291 292 292 292 293 294 294 294 295 295 295 293 292 291 289 287 285 284 281 279 277 274 271 269 268 266 264 263
288 289 291 291 293 294 294 294 294 294 293 293 292 292 291 292 292 293 293 292 293 294 294 295 295 296 296 295 293 292 291 288 286 284 281 279 278 274 271 269 268 266 264 263
289 290 291 293 294 294 294 294 295 295 294 294 294 293 293 292 292 292 293 293 294 294 295 296 296 296 296 295 295 294 293 290 287 284 281 279 277 274 272 269 267 265 263 263
289 290 291 293 294 295 295 296 295 295 295 295 294 294 294 293 293 293 293 294 294 295 296 296 296 297 296 295 295 295 294 292 289 286 282 279 276 274 272 269 267 265 263 262
289 290 292 293 293 294 295 294 294 294 294 295 295 294 294 295 295 295 295 295 295 295 296 296 297 297 297 296 296 295 294 292 289 286 283 281 277 273 271 268 266 264 263 262
290 292 293 293 294 294 294 294 294 293 294 295 295 295 295 295 296 296 297 296 296 296 297 297 298 298 298 297 297 295 294 292 289 285 283 281 278 274 271 268 266 264 263 261
290 292 292 293 293 294 294 293 293 294 294 294 295 296 296 297 297 297 298 297 297 297 298 298 298 299 299 298 298 297 295 294 290 286 283 280 279 275 272 269 266 265 263 261
291 292 292 292 292 292 292 293 293 294 294 295 295 296 296 297 298 298 298 298 298 298 298 299 299 300 299 299 298 298 296 295 292 289 285 281 278 276 273 269 267 265 262 260
292 293 293 293 292 292 292 292 293 293 294 295 296 297 297 297 297 298 298 299 299 299 299 299 300 300 300 299 298 298 296 295 293 291 287 283 279 276 273 270 267 265 262 259
292 293 293 294 293 293 292 293 293 294 295 295 295 296 297 296 296 297 298 299 298 299 299 300 300 299 299 299 298 298 296 295 293 291 288 285 282 278 274 271 268 265 261 259
293 293 294 294 294 294 294 294 295 295 295 296 296 296 296 296 296 297 298 298 298 299 300 300 300 300 300 300 300 299 297 295 294 292 289 286 283 280 276 273 268 264 260 259
294 294 295 296 296 296 296 297 298 298 297 297 297 297 297 296 296 297 298 299 299 299 300 301 301 301 301 301 300 299 298 296 294 292 289 286 283 280 277 274 269 263 261 260
295 295 296 296 297 297 297 298 299 299 299 298 297 297 296 295 295 296 297 299 300 300 300 301 301 301 301 301 300 300 299 297 296 294 291 287 284 280 276 273 269 264 261 260
297 297 297 298 298 299 298 299 299 299 299 298 298 297 296 295 295 296 297 299 301 301 302 303 303 303 302 302 302 301 300 299 298 297 293 289 285 281 277 273 269 265 261 259
299 299 299 300 301 301 300 300 300 301 300 300 299 297 296 295 295 296 298 299 301 303 304 305 305 304 303 303 303 303 302 301 300 298 295 291 288 283 279 274 269 266 262 260
300 300 300 301 302 302 302 301 301 300 300 299 298 297 296 296 296 298 299 300 301 304 306 307 307 306 305 305 305 304 304 303 302 301 297 293 290 286 281 276 271 266 263 260
301 301 301 302 302 302 302 302 301 301 300 299 298 298 297 297 298 298 299 301 302 304 306 308 308 308 307 306 306 304 303 303 303 302 300 296 292 288 283 277 272 268 264 261
303 303 303 303 303 303 303 303 303 302 301 300 298 298 298 298 299 299 299 301 302 304 305 307 308 308 308 306 306 305 303 302 303 303 301 298 294 289 284 279 274 269 265 261
305 305 305 305 306 305 305 304 303 302 301 300 299 299 299 299 299 299 300 301 303 304 305 306 307 308 308 307 306 305 304 303 303 302 301 300 297 291 285 280 275 269 265 262
307 307 307 307 307 307 307 305 304 303 302 301 301 300 299 300 300 300 301 302 303 304 305 306 307 308 309 309 307 306 306 305 304 302 301 299 298 293 287 281 275 269 265 262
309 309 309 308 308 307 307 306 305 305 304 303 302 301 301 300 300 301 303 304 304 304 305 306 307 308 309 310 309 307 306 305 304 302 301 299 298 295 288 281 276 271 267 264
311 311 310 309 308 308 308 307 307 306 305 305 304 303 302 302 302 302 304 305 305 306 306 308 309 309 309 309 310 309 308 307 305 303 301 299 298 295 291 284 278 274 270 267
312 313 312 311 310 309 309 309 308 307 306 305 304 304 304 305 305 305 305 305 305 306 307 308 308 308 309 310 310 309 309 308 306 304 302 299 297 295 292 288 281 276 272 269
311 312 312 312 311 311 311 310 309 308 307 305 304 303 304 304 305 305 306 306 306 307 307 306 306 307 308 309 309 309 308 307 306 305 302 300 298 296 293 289 286 280 273 270
Height
5641 5637 5634 5632 5630 5626 5622 5618 5615 5613 5609 5606 5601 5598 5595 5591 5588 5584 5580 5577 5573 5569 5565 5561 5556 5552 5548 5544 5540 5536 5533 5530 5526 5523 5520 5518 5517 5515 5514 5513 5513 5513 5513 5514
5630 5627 5623 5621 5619 5615 5611 5607 5604 5600 5598 5594 5590 5586 5583 5579 5576 5572 5568 5564 5561 5557 5552 5548 5544 5540 5535 5531 5527 5523 5520 5516 5512 5509 5506 5504 5503 5501 5500 5499 5499 5499 5500 5500
5619 5616 5612 5610 5609 5604 5600 5597 5593 5589 5588 5582 5579 5575 5571 5568 5564 5560 5556 5552 5548 5544 5540 5536 5532 5527 5523 5519 5514 5510 5506 5502 5499 5496 5493 5490 5489 5488 5487 5486 5486 5486 5486 5487
5606 5605 5602 5603 5597 5593 5589 5586 5582 5578 5574 5570 5567 5563 5560 5556 5552 5548 5544 5540 5536 5532 5528 5524 5520 5515 5510 5506 5501 5497 5493 5489 5485 5483 5480 5478 5476 5475 5474 5473 5473 5473 5474 5474
5595 5592 5590 5590 5586 5581 5577 5575 5570 5566 5563 5559 5555 5552 5548 5544 5539 5536 5532 5528 5525 5520 5516 5512 5508 5503 5498 5493 5489 5484 5480 5476 5473 5470 5468 5466 5464 5463 5462 5462 5461 5461 5461 5462
5584 5580 5579 5579 5574 5569 5566 5563 5560 5555 5551 5547 5543 5540 5538 5532 5528 5524 5520 5517 5513 5509 5504 5500 5495 5490 5486 5481 5477 5472 5468 5464 5460 5458 5456 5454 5452 5451 5450 5450 5450 5450 5450 5450
5574 5569 5568 5566 5562 5557 5556 5553 5548 5544 5540 5536 5532 5529 5525 5521 5517 5513 5509 5505 5501 5497 5492 5488 5483 5479 5474 5470 5465 5461 5457 5453 5449 5446 5444 5443 5441 5440 5439 5439 5439 5439 5440 5440
5563 5559 5560 5554 5550 5547 5544 5539 5536 5532 5528 5525 5521 5517 5513 5509 5505 5501 5497 5493 5489 5485 5481 5476 5472 5467 5463 5459 5454 5450 5446 5442 5439 5436 5433 5432 5430 5429 5428 5428 5428 5428 5429 5429
5553 5551 5546 5542 5538 5535 5531 5528 5524 5521 5517 5514 5510 5506 5502 5498 5494 5490 5486 5482 5478 5473 5469 5465 5461 5456 5452 5448 5443 5439 5435 5432 5428 5425 5423 5421 5420 5419 5418 5418 5418 5418 5418 5419
5541 5539 5535 5531 5527 5524 5520 5516 5513 5510 5506 5503 5499 5495 5491 5487 5483 5479 5475 5471 5467 5463 5458 5454 5450 5446 5442 5438 5433 5429 5426 5422 5418 5416 5413 5411 5410 5409 5408 5407 5407 5407 5408 5408
5531 5528 5524 5521 5516 5513 5509 5505 5502 5499 5495 5491 5488 5485 5481 5477 5473 5469 5464 5460 5456 5452 5448 5444 5440 5436 5432 5428 5424 5420 5416 5413 5410 5407 5404 5402 5400 5398 5398 5397 5396 5397 5397 5398
5521 5517 5513 5510 5506 5502 5498 5495 5491 5488 5484 5481 5477 5474 5470 5466 5462 5458 5454 5450 5446 5442 5438 5434 5430 5426 5422 5418 5414 5411 5407 5404 5401 5398 5395 5393 5391 5389 5387 5387 5387 5386 5387 5388
5510 5506 5503 5499 5495 5491 5488 5484 5481 5477 5474 5470 5467 5463 5459 5455 5451 5448 5444 5440 5436 5433 5429 5425 5421 5417 5413 5409 5405 5401 5398 5395 5392 5389 5386 5384 5382 5380 5379 5378 5377 5377 5377 5378
5499 5496 5493 5489 5485 5481 5477 5474 5470 5467 5463 5460 5456 5453 5449 5445 5441 5438 5434 5431 5427 5423 5419 5415 5411 5408 5404 5400 5396 5392 5389 5386 5383 5380 5378 5375 5373 5371 5370 5369 5369 5368 5369 5369
5489 5486 5483 5479 5475 5471 5467 5463 5460 5456 5453 5449 5446 5442 5439 5435 5432 5428 5425 5421 5417 5414 5410 5406 5402 5398 5394 5391 5387 5384 5380 5377 5374 5372 5369 5367 5365 5363 5362 5361 5360 5360 5360 5361
5480 5476 5472 5469 5465 5461 5458 5454 5450 5446 5443 5439 5436 5432 5429 5425 5422 5419 5415 5412 5408 5404 5401 5397 5393 5389 5385 5382 5379 5375 5372 5369 5366 5363 5360 5358 5356 5354 5353 5352 5352 5352 5352 5353
5471 5467 5463 5459 5456 5452 5448 5444 5440 5437 5433 5429 5426 5422 5419 5416 5413 5410 5406 5403 5399 5395 5392 5388 5384 5381 5377 5374 5370 5367 5364 5361 5358 5355 5352 5349 5347 5346 5345 5344 5343 5343 5344 5344
5461 5457 5454 5450 5446 5442 5438 5434 5430 5427 5423 5419 5416 5412 5409 5406 5403 5401 5397 5394 5391 5387 5383 5380 5376 5373 5369 5366 5363 5359 5356 5353 5350 5347 5344 5342 5340 5338 5336 5335 5335 5335 5335 5335
5452 5448 5444 5440 5436 5432 5428 5424 5420 5417 5413 5410 5406 5403 5400 5397 5395 5392 5388 5386 5383 5379 5376 5372 5369 5365 5362 5359 5355 5352 5349 5346 5343 5340 5337 5334 5332 5330 5328 5327 5327 5326 5326 5327
5443 5439 5435 5431 5427 5423 5419 5415 5411 5408 5404 5401 5397 5394 5392 5389 5386 5383 5380 5378 5375 5372 5368 5365 5362 5358 5355 5351 5348 5345 5342 5339 5336 5332 5329 5327 5324 5322 5320 5319 5318 5318 5318 5318
5433 5430 5426 5422 5418 5414 5410 5406 5403 5399 5395 5392 5389 5386 5384 5381 5378 5376 5373 5370 5367 5364 5361 5358 5355 5352 5348 5345 5341 5338 5335 5332 5328 5325 5322 5319 5317 5315 5313 5311 5311 5310 5310 5311
5425 5421 5417 5413 5409 5405 5401 5397 5394 5391 5387 5384 5381 5379 5376 5373 5371 5368 5365 5363 5360 5357 5354 5351 5348 5345 5341 5338 5334 5331 5328 5325 5321 5318 5315 5313 5310 5307 5306 5305 5304 5303 5303 5304
5416 5412 5408 5405 5401 5397 5393 5389 5386 5382 5379 5376 5374 5371 5368 5366 5364 5361 5359 5356 5353 5350 5347 5344 5341 5338 5334 5331 5328 5324 5321 5318 5315 5312 5309 5306 5304 5301 5299 5298 5298 5297 5297 5297
5408 5404 5401 5397 5393 5389 5385 5382 5378 5375 5372 5369 5366 5363 5361 5359 5356 5354 5351 5348 5346 5343 5340 5337 5334 5331 5328 5324 5321 5318 5315 5311 5308 5306 5303 5301 5298 5296 5294 5293 5292 5291 5291 5291
5401 5397 5393 5390 5386 5382 5378 5375 5371 5368 5365 5362 5359 5356 5354 5352 5349 5347 5344 5342 5339 5336 5333 5330 5327 5324 5321 5318 5315 5311 5308 5305 5302 5300 5297 5295 5293 5291 5289 5288 5287 5286 5286 5286
5394 5390 5386 5383 5379 5375 5372 5368 5364 5361 5358 5355 5352 5350 5348 5345 5343 5340 5338 5335 5332 5330 5327 5324 5321 5318 5315 5312 5308 5305 5302 5299 5297 5294 5292 5290 5288 5286 5284 5283 5282 5281 5280 5280
5387 5383 5379 5376 5372 5368 5365 5361 5358 5355 5352 5349 5346 5344 5341 5339 5336 5334 5331 5329 5326 5323 5320 5317 5314 5311 5308 5305 5302 5299 5296 5294 5291 5289 5287 5285 5283 5281 5279 5278 5277 5276 5275 5275